Zurück zum Katalog

STARLINK-5643

AktivKommunikationVLEO
NORAD 55431·PAYLOAD·🇺🇸 United States

Gestartet Jan 31, 2023 von Vandenberg Space Force Base

Loading…

Nächste Überflüge (nächste 24 Stunden)

TLE

AktuellSource: CelesTrak SupGP

Epoche: Sep 14, 2026, 21:41 UTC

1 55431C 23014AS  26257.90395833  .00530170  00000+0  43205-1 0  2577
2 55431  70.0004 327.5422 0003200 273.4995 340.0338 14.99141703    11

Verfolge STARLINK-5643 in Echtzeit mit AllMySat

Download on the App Store